| time (UTC) | temp C | wind direction | speed KPH | gust KPH | rain 1hr cm | rain 24hr cm | rain mn cm | humidity % | barometer mb |
| 20260509232134 | 18 | 31 | 1.6 | 3.2 | 0.00 | 0.00 | 0.00 | 45 | 1002.1 |
| 20260509231630 | 18 | 359 | 0.0 | 1.6 | 0.00 | 0.00 | 0.00 | 44 | 1002.2 |
| 20260509231128 | 18 | 357 | 0.0 | 0.0 | 0.00 | 0.00 | 0.00 | 44 | 1002.0 |
| 20260509230625 | 18 | 24 | 0.0 | 1.6 | 0.00 | 0.00 | 0.00 | 44 | 1002.0 |
| 20260509230122 | 18 | 51 | 4.8 | 4.8 | 0.00 | 0.00 | 0.00 | 44 | 1002.0 |
| 20260509225618 | 18 | 344 | 3.2 | 3.2 | 0.00 | 0.00 | 0.00 | 44 | 1002.0 |
| 20260509225113 | 19 | 0 | 1.6 | 1.6 | 0.00 | 0.00 | 0.00 | 44 | 1002.0 |
| 20260509224609 | 18 | 44 | 3.2 | 4.8 | 0.00 | 0.00 | 0.00 | 43 | 1001.9 |
| 20260509224106 | 18 | 52 | 1.6 | 1.6 | 0.00 | 0.00 | 0.00 | 44 | 1001.9 |
| 20260509223603 | 18 | 6 | 4.8 | 8.0 | 0.00 | 0.00 | 0.00 | 43 | 1001.6 |
| 20260509223101 | 18 | 340 | 4.8 | 4.8 | 0.00 | 0.00 | 0.00 | 43 | 1001.9 |
| 20260509222556 | 18 | 42 | 3.2 | 4.8 | 0.00 | 0.00 | 0.00 | 43 | 1001.9 |
| 20260509222053 | 19 | 11 | 1.6 | 3.2 | 0.00 | 0.00 | 0.00 | 42 | 1002.0 |
| 20260509221548 | 18 | 127 | 3.2 | 4.8 | 0.00 | 0.00 | 0.00 | 42 | 1001.9 |
| 20260509221044 | 18 | 297 | 4.8 | 8.0 | 0.00 | 0.00 | 0.00 | 43 | 1001.9 |
| 20260509220540 | 18 | 7 | 4.8 | 8.0 | 0.00 | 0.00 | 0.00 | 42 | 1001.9 |
| 20260509220037 | 18 | 23 | 6.4 | 8.0 | 0.00 | 0.00 | 0.00 | 42 | 1001.8 |
| 20260509215532 | 18 | 358 | 4.8 | 8.0 | 0.00 | 0.00 | 0.00 | 42 | 1001.9 |
| 20260509215030 | 18 | 357 | 6.4 | 9.7 | 0.00 | 0.00 | 0.00 | 42 | 1001.8 |
| 20260509214527 | 20 | 23 | 8.0 | 8.0 | 0.00 | 0.00 | 0.00 | 40 | 1001.6 |
| 20260509214024 | 20 | 72 | 4.8 | 4.8 | 0.00 | 0.00 | 0.00 | 40 | 1001.9 |
| 20260509213520 | 19 | 86 | 3.2 | 4.8 | 0.00 | 0.00 | 0.00 | 40 | 1001.9 |
| 20260509213017 | 20 | 69 | 9.7 | 12.9 | 0.00 | 0.00 | 0.00 | 39 | 1001.9 |
| 20260509212514 | 20 | 326 | 3.2 | 4.8 | 0.00 | 0.00 | 0.00 | 40 | 1001.6 |
| 20260509212011 | 20 | 35 | 6.4 | 8.0 | 0.00 | 0.00 | 0.00 | 39 | 1001.6 |
| 20260509211506 | 20 | 26 | 6.4 | 12.9 | 0.00 | 0.00 | 0.00 | 39 | 1001.6 |
| 20260509211003 | 20 | 335 | 8.0 | 11.3 | 0.00 | 0.00 | 0.00 | 39 | 1001.8 |
| 20260509210500 | 19 | 58 | 4.8 | 4.8 | 0.00 | 0.00 | 0.00 | 40 | 1001.6 |
| 20260509205955 | 20 | 17 | 6.4 | 9.7 | 0.00 | 0.00 | 0.00 | 38 | 1001.5 |
| 20260509205450 | 20 | 318 | 8.0 | 11.3 | 0.00 | 0.00 | 0.00 | 36 | 1001.6 |
| 20260509204946 | 20 | 143 | 8.0 | 11.3 | 0.00 | 0.00 | 0.00 | 36 | 1001.5 |
| 20260509204443 | 20 | 47 | 3.2 | 4.8 | 0.00 | 0.00 | 0.00 | 36 | 1001.5 |
| 20260509203940 | 20 | 302 | 8.0 | 12.9 | 0.00 | 0.00 | 0.00 | 35 | 1001.4 |
| 20260509203435 | 21 | 106 | 8.0 | 9.7 | 0.00 | 0.00 | 0.00 | 33 | 1001.2 |
| 20260509202933 | 20 | 282 | 4.8 | 9.7 | 0.00 | 0.00 | 0.00 | 36 | 1001.5 |
| 20260509202429 | 20 | 276 | 3.2 | 3.2 | 0.00 | 0.00 | 0.00 | 37 | 1001.3 |
| 20260509201924 | 20 | 207 | 6.4 | 9.7 | 0.00 | 0.00 | 0.00 | 36 | 1001.4 |
| 20260509201419 | 20 | 0 | 8.0 | 11.3 | 0.00 | 0.00 | 0.00 | 34 | 1001.5 |
| 20260509200917 | 20 | 58 | 8.0 | 11.3 | 0.00 | 0.00 | 0.00 | 37 | 1001.4 |
| 20260509200416 | 20 | 354 | 6.4 | 8.0 | 0.00 | 0.00 | 0.00 | 38 | 1001.5 |
| 20260509195913 | 20 | 354 | 1.6 | 3.2 | 0.00 | 0.00 | 0.00 | 38 | 1001.2 |
| 20260509195409 | 20 | 352 | 9.7 | 12.9 | 0.00 | 0.00 | 0.00 | 37 | 1001.3 |
| 20260509194908 | 20 | 181 | 8.0 | 9.7 | 0.00 | 0.00 | 0.00 | 41 | 1001.3 |
| 20260509194405 | 20 | 20 | 4.8 | 8.0 | 0.00 | 0.00 | 0.00 | 44 | 1001.3 |
| 20260509193902 | 20 | 150 | 3.2 | 3.2 | 0.00 | 0.00 | 0.00 | 44 | 1001.4 |
| 20260509193401 | 20 | 22 | 4.8 | 4.8 | 0.00 | 0.00 | 0.00 | 45 | 1001.5 |
| 20260509192858 | 18 | 72 | 1.6 | 1.6 | 0.00 | 0.00 | 0.00 | 47 | 1001.5 |
| 20260509192354 | 18 | 345 | 0.0 | 1.6 | 0.00 | 0.00 | 0.00 | 48 | 1002.0 |
| 20260509191849 | 18 | 356 | 4.8 | 8.0 | 0.00 | 0.00 | 0.00 | 49 | 1002.2 |
| 20260509191345 | 17 | 132 | 0.0 | 1.6 | 0.00 | 0.00 | 0.00 | 51 | 1002.5 |
| 20260509190842 | 16 | 248 | 1.6 | 3.2 | 0.00 | 0.00 | 0.00 | 52 | 1002.6 |
| 20260509190338 | 16 | 312 | 0.0 | 1.6 | 0.00 | 0.00 | 0.00 | 55 | 1002.5 |
| 20260509185836 | 16 | 18 | 4.8 | 4.8 | 0.00 | 0.00 | 0.00 | 54 | 1002.6 |
| 20260509185332 | 16 | 1 | 3.2 | 4.8 | 0.00 | 0.00 | 0.00 | 55 | 1002.3 |
| 20260509184830 | 16 | 50 | 3.2 | 4.8 | 0.00 | 0.00 | 0.00 | 54 | 1002.0 |
| 20260509184327 | 16 | 27 | 4.8 | 4.8 | 0.00 | 0.00 | 0.00 | 52 | 1002.2 |
| 20260509183823 | 16 | 276 | 4.8 | 4.8 | 0.00 | 0.00 | 0.00 | 53 | 1002.4 |
| 20260509183318 | 16 | 325 | 0.0 | 1.6 | 0.00 | 0.00 | 0.00 | 51 | 1002.0 |
| 20260509182815 | 16 | 17 | 3.2 | 3.2 | 0.00 | 0.00 | 0.00 | 51 | 1002.0 |
| 20260509182312 | 16 | 23 | 3.2 | 3.2 | 0.00 | 0.00 | 0.00 | 50 | 1002.1 |
| 20260509181809 | 17 | 349 | 3.2 | 3.2 | 0.00 | 0.00 | 0.00 | 49 | 1002.1 |
| 20260509181306 | 17 | 7 | 4.8 | 8.0 | 0.00 | 0.00 | 0.00 | 47 | 1002.2 |
| 20260509180804 | 17 | 331 | 16.1 | 24.1 | 0.00 | 0.00 | 0.00 | 47 | 1001.8 |
| 20260509180300 | 18 | 4 | 6.4 | 8.0 | 0.00 | 0.00 | 0.00 | 51 | 1001.9 |
| 20260509175756 | 19 | 0 | 8.0 | 9.7 | 0.00 | 0.00 | 0.00 | 50 | 1002.0 |
| 20260509175253 | 18 | 35 | 9.7 | 12.9 | 0.00 | 0.00 | 0.00 | 52 | 1002.0 |
| 20260509174749 | 18 | 343 | 4.8 | 4.8 | 0.00 | 0.00 | 0.00 | 53 | 1001.9 |
| 20260509174244 | 18 | 61 | 6.4 | 8.0 | 0.00 | 0.00 | 0.00 | 54 | 1001.8 |
| 20260509173740 | 18 | 275 | 3.2 | 4.8 | 0.00 | 0.00 | 0.00 | 56 | 1001.8 |
| 20260509173236 | 17 | 26 | 4.8 | 8.0 | 0.00 | 0.00 | 0.00 | 56 | 1001.8 |
| 20260509172732 | 17 | 299 | 4.8 | 4.8 | 0.00 | 0.00 | 0.00 | 57 | 1001.6 |
| 20260509172229 | 18 | 82 | 6.4 | 9.7 | 0.00 | 0.00 | 0.00 | 54 | 1001.5 |
| 20260509171724 | 19 | 70 | 9.7 | 12.9 | 0.00 | 0.00 | 0.00 | 49 | 1001.4 |
| 20260509171221 | 19 | 42 | 4.8 | 8.0 | 0.00 | 0.00 | 0.00 | 49 | 1001.3 |
| 20260509170718 | 18 | 25 | 8.0 | 11.3 | 0.00 | 0.00 | 0.00 | 53 | 1001.1 |
| 20260509170214 | 18 | 2 | 8.0 | 9.7 | 0.00 | 0.00 | 0.00 | 52 | 1001.0 |
| 20260509165712 | 19 | 43 | 4.8 | 8.0 | 0.00 | 0.00 | 0.00 | 51 | 1001.0 |
| 20260509165208 | 20 | 266 | 1.6 | 1.6 | 0.00 | 0.00 | 0.00 | 51 | 1000.8 |
| 20260509164704 | 20 | 24 | 3.2 | 3.2 | 0.00 | 0.00 | 0.00 | 50 | 1000.7 |
| 20260509164200 | 20 | 300 | 1.6 | 3.2 | 0.00 | 0.00 | 0.00 | 52 | 1000.7 |
| 20260509163657 | 20 | 145 | 8.0 | 11.3 | 0.00 | 0.00 | 0.00 | 50 | 1000.6 |
| 20260509163153 | 20 | 282 | 1.6 | 1.6 | 0.00 | 0.00 | 0.00 | 52 | 1000.7 |
| 20260509162651 | 20 | 114 | 0.0 | 1.6 | 0.00 | 0.00 | 0.00 | 52 | 1000.7 |
| 20260509162146 | 20 | 321 | 4.8 | 9.7 | 0.00 | 0.00 | 0.00 | 50 | 1000.6 |
| 20260509161643 | 20 | 187 | 4.8 | 11.3 | 0.00 | 0.00 | 0.00 | 51 | 1000.6 |
| 20260509161138 | 20 | 206 | 4.8 | 8.0 | 0.00 | 0.00 | 0.00 | 52 | 1000.6 |
| 20260509160634 | 20 | 204 | 6.4 | 9.7 | 0.00 | 0.00 | 0.00 | 52 | 1000.4 |
| 20260509160129 | 20 | 168 | 3.2 | 4.8 | 0.00 | 0.00 | 0.00 | 53 | 1000.5 |
| 20260509155626 | 20 | 322 | 6.4 | 9.7 | 0.00 | 0.00 | 0.00 | 51 | 1000.4 |
| 20260509155122 | 19 | 339 | 3.2 | 4.8 | 0.00 | 0.00 | 0.00 | 54 | 1000.6 |
| 20260509154618 | 19 | 323 | 4.8 | 9.7 | 0.00 | 0.00 | 0.00 | 54 | 1000.2 |
| 20260509154115 | 19 | 356 | 9.7 | 11.3 | 0.00 | 0.00 | 0.00 | 53 | 1000.6 |
| 20260509153612 | 18 | 231 | 3.2 | 8.0 | 0.00 | 0.00 | 0.00 | 54 | 1000.6 |
| 20260509153109 | 19 | 159 | 6.4 | 9.7 | 0.00 | 0.00 | 0.00 | 54 | 1000.4 |
| 20260509152605 | 18 | 158 | 4.8 | 8.0 | 0.00 | 0.00 | 0.00 | 58 | 1000.6 |
| 20260509152103 | 18 | 357 | 1.6 | 3.2 | 0.00 | 0.00 | 0.00 | 58 | 1000.6 |
| 20260509151558 | 18 | 335 | 8.0 | 16.1 | 0.00 | 0.00 | 0.00 | 59 | 1000.7 |
| 20260509151057 | 18 | 163 | 1.6 | 3.2 | 0.00 | 0.00 | 0.00 | 60 | 1000.7 |
| 20260509150554 | 18 | 154 | 1.6 | 4.8 | 0.00 | 0.00 | 0.00 | 60 | 1000.7 |
| 20260509150052 | 18 | 174 | 8.0 | 11.3 | 0.00 | 0.00 | 0.00 | 60 | 1000.8 |
| 20260509145547 | 18 | 9 | 4.8 | 8.0 | 0.00 | 0.00 | 0.00 | 60 | 1001.0 |
| 20260509145043 | 18 | 23 | 0.0 | 1.6 | 0.00 | 0.00 | 0.00 | 61 | 1000.8 |
| 20260509144540 | 17 | 177 | 4.8 | 4.8 | 0.00 | 0.00 | 0.00 | 63 | 1001.0 |
| 20260509144037 | 17 | 149 | 1.6 | 3.2 | 0.00 | 0.00 | 0.00 | 62 | 1001.0 |
| 20260509143534 | 17 | 147 | 1.6 | 3.2 | 0.00 | 0.00 | 0.00 | 63 | 1000.9 |
| 20260509143033 | 16 | 191 | 1.6 | 1.6 | 0.00 | 0.00 | 0.00 | 66 | 1000.8 |
| 20260509142533 | 17 | 290 | 1.6 | 3.2 | 0.00 | 0.00 | 0.00 | 66 | 1000.7 |
| 20260509142029 | 17 | 301 | 3.2 | 8.0 | 0.00 | 0.00 | 0.00 | 66 | 1000.7 |
| 20260509141526 | 16 | 137 | 3.2 | 4.8 | 0.00 | 0.00 | 0.00 | 68 | 1000.9 |
| 20260509141023 | 16 | 142 | 4.8 | 8.0 | 0.00 | 0.00 | 0.00 | 68 | 1000.9 |
| 20260509140519 | 16 | 208 | 1.6 | 3.2 | 0.00 | 0.00 | 0.00 | 72 | 1000.9 |
| 20260509140017 | 16 | 156 | 3.2 | 4.8 | 0.00 | 0.00 | 0.00 | 71 | 1001.0 |
| 20260509135514 | 16 | 170 | 3.2 | 4.8 | 0.00 | 0.00 | 0.00 | 71 | 1001.2 |
| 20260509135012 | 16 | 189 | 3.2 | 3.2 | 0.00 | 0.00 | 0.00 | 71 | 1001.2 |
| 20260509134509 | 15 | 14 | 1.6 | 1.6 | 0.00 | 0.00 | 0.00 | 74 | 1001.2 |
| 20260509134007 | 15 | 191 | 0.0 | 1.6 | 0.00 | 0.00 | 0.00 | 77 | 1001.2 |
| 20260509133503 | 13 | 124 | 3.2 | 4.8 | 0.00 | 0.00 | 0.00 | 79 | 1001.2 |
| 20260509133001 | 13 | 169 | 4.8 | 4.8 | 0.00 | 0.00 | 0.00 | 82 | 1001.2 |
| 20260509132459 | 13 | 159 | 3.2 | 4.8 | 0.00 | 0.00 | 0.00 | 83 | 1001.3 |
| 20260509131955 | 13 | 160 | 4.8 | 4.8 | 0.00 | 0.00 | 0.00 | 81 | 1001.5 |
| 20260509131452 | 13 | 174 | 4.8 | 8.0 | 0.00 | 0.00 | 0.00 | 82 | 1001.4 |
| 20260509130949 | 13 | 161 | 1.6 | 1.6 | 0.00 | 0.00 | 0.00 | 82 | 1001.6 |
| 20260509130444 | 12 | 147 | 3.2 | 3.2 | 0.00 | 0.00 | 0.00 | 84 | 1001.9 |
| 20260509125942 | 12 | 304 | 1.6 | 1.6 | 0.00 | 0.00 | 0.00 | 88 | 1001.5 |
| 20260509125438 | 11 | 153 | 3.2 | 3.2 | 0.00 | 0.00 | 0.00 | 89 | 1001.6 |
| 20260509124934 | 11 | 156 | 3.2 | 4.8 | 0.00 | 0.00 | 0.00 | 89 | 1001.8 |
| 20260509124432 | 11 | 150 | 1.6 | 3.2 | 0.00 | 0.00 | 0.00 | 89 | 1001.9 |
| 20260509123929 | 11 | 107 | 0.0 | 0.0 | 0.00 | 0.00 | 0.00 | 90 | 1002.0 |
| 20260509123426 | 11 | 183 | 1.6 | 1.6 | 0.00 | 0.00 | 0.00 | 91 | 1001.9 |
| 20260509122922 | 11 | 196 | 1.6 | 1.6 | 0.00 | 0.00 | 0.00 | 91 | 1002.2 |
| 20260509122419 | 11 | 280 | 1.6 | 4.8 | 0.00 | 0.00 | 0.00 | 92 | 1002.1 |
| 20260509121916 | 11 | 131 | 0.0 | 1.6 | 0.00 | 0.00 | 0.00 | 93 | 1002.2 |
| 20260509121413 | 11 | 294 | 3.2 | 4.8 | 0.00 | 0.00 | 0.00 | 93 | 1002.0 |
| 20260509120911 | 10 | 153 | 8.0 | 9.7 | 0.00 | 0.00 | 0.00 | 93 | 1002.0 |
| 20260509120408 | 11 | 160 | 1.6 | 3.2 | 0.00 | 0.00 | 0.00 | 93 | 1002.3 |
| 20260509115906 | 11 | 352 | 0.0 | 0.0 | 0.00 | 0.00 | 0.00 | 93 | 1002.5 |
| 20260509115403 | 11 | 135 | 4.8 | 8.0 | 0.00 | 0.00 | 0.00 | 93 | 1002.7 |
| 20260509114901 | 10 | 313 | 1.6 | 4.8 | 0.00 | 0.00 | 0.00 | 94 | 1002.5 |
| 20260509114359 | 10 | 159 | 0.0 | 0.0 | 0.00 | 0.00 | 0.00 | 95 | 1002.4 |
| 20260509113858 | 10 | 9 | 1.6 | 1.6 | 0.00 | 0.00 | 0.00 | 96 | 1002.3 |
| 20260509113355 | 10 | 271 | 0.0 | 0.0 | 0.00 | 0.00 | 0.00 | 96 | 1002.4 |
| 20260509112852 | 10 | 182 | 0.0 | 0.0 | 0.00 | 0.00 | 0.00 | 97 | 1002.5 |
| 20260509112349 | 10 | 309 | 0.0 | 0.0 | 0.00 | 0.00 | 0.00 | 97 | 1002.4 |
| 20260509111846 | 10 | 15 | 0.0 | 0.0 | 0.00 | 0.00 | 0.00 | 98 | 1002.3 |
| 20260509111343 | 9 | 146 | 1.6 | 1.6 | 0.00 | 0.00 | 0.00 | 98 | 1002.3 |
| 20260509110841 | 9 | 1 | 0.0 | 0.0 | 0.00 | 0.00 | 0.00 | 98 | 1002.4 |
| 20260509110336 | 9 | 164 | 0.0 | 0.0 | 0.00 | 0.00 | 0.00 | 98 | 1002.4 |
| 20260509105835 | 9 | 304 | 0.0 | 0.0 | 0.00 | 0.00 | 0.00 | 99 | 1002.2 |
| 20260509105333 | 8 | 155 | 0.0 | 1.6 | 0.00 | 0.00 | 0.00 | 99 | 1002.2 |
| 20260509104829 | 8 | 86 | 0.0 | 0.0 | 0.00 | 0.00 | 0.00 | 99 | 1002.5 |
| 20260509104326 | 8 | 324 | 0.0 | 0.0 | 0.00 | 0.00 | 0.00 | 99 | 1002.3 |
| 20260509103824 | 8 | 191 | 0.0 | 0.0 | 0.00 | 0.00 | 0.00 | 99 | 1002.3 |
| 20260509103321 | 8 | 141 | 0.0 | 0.0 | 0.00 | 0.00 | 0.00 | 99 | 1002.1 |
| 20260509102820 | 8 | 156 | 0.0 | 0.0 | 0.00 | 0.00 | 0.00 | 99 | 1002.5 |
| 20260509102316 | 8 | 138 | 0.0 | 0.0 | 0.00 | 0.00 | 0.00 | 99 | 1002.6 |
| 20260509101812 | 8 | 161 | 0.0 | 0.0 | 0.00 | 0.00 | 0.00 | 99 | 1002.6 |
| 20260509101308 | 8 | 8 | 0.0 | 0.0 | 0.00 | 0.00 | 0.00 | 99 | 1002.5 |
| 20260509100806 | 8 | 36 | 0.0 | 0.0 | 0.00 | 0.00 | 0.00 | 99 | 1002.7 |
| 20260509100303 | 8 | 338 | 0.0 | 0.0 | 0.00 | 0.00 | 0.00 | 99 | 1002.7 |
| 20260509095759 | 8 | 341 | 0.0 | 0.0 | 0.00 | 0.00 | 0.00 | 99 | 1002.6 |
| 20260509095257 | 8 | 31 | 0.0 | 0.0 | 0.00 | 0.00 | 0.00 | 99 | 1002.7 |
| 20260509094754 | 8 | 2 | 0.0 | 0.0 | 0.00 | 0.00 | 0.00 | 99 | 1002.8 |
| 20260509094251 | 8 | 10 | 0.0 | 0.0 | 0.00 | 0.00 | 0.00 | 99 | 1003.1 |
| 20260509093749 | 8 | 12 | 0.0 | 0.0 | 0.00 | 0.00 | 0.00 | 99 | 1002.8 |
| 20260509093245 | 8 | 354 | 0.0 | 0.0 | 0.00 | 0.00 | 0.00 | 98 | 1003.0 |
| 20260509092744 | 8 | 339 | 0.0 | 0.0 | 0.00 | 0.00 | 0.00 | 98 | 1002.9 |
| 20260509092242 | 8 | 6 | 0.0 | 0.0 | 0.00 | 0.00 | 0.00 | 98 | 1003.0 |
| 20260509091739 | 8 | 19 | 0.0 | 0.0 | 0.00 | 0.00 | 0.00 | 98 | 1003.2 |
| 20260509091235 | 8 | 9 | 0.0 | 0.0 | 0.00 | 0.00 | 0.00 | 97 | 1003.2 |
| 20260509090733 | 8 | 359 | 0.0 | 0.0 | 0.00 | 0.00 | 0.00 | 98 | 1003.3 |
| 20260509090230 | 8 | 328 | 0.0 | 0.0 | 0.00 | 0.00 | 0.00 | 98 | 1003.3 |
| 20260509085728 | 8 | 356 | 0.0 | 0.0 | 0.00 | 0.00 | 0.00 | 98 | 1003.3 |
| 20260509085225 | 8 | 189 | 0.0 | 0.0 | 0.00 | 0.00 | 0.00 | 97 | 1003.4 |
| 20260509084721 | 8 | 15 | 0.0 | 0.0 | 0.00 | 0.00 | 0.00 | 96 | 1003.4 |
| 20260509084218 | 8 | 20 | 0.0 | 0.0 | 0.00 | 0.00 | 0.00 | 96 | 1003.4 |
| 20260509083716 | 8 | 28 | 0.0 | 0.0 | 0.00 | 0.00 | 0.00 | 96 | 1003.3 |
| 20260509083212 | 8 | 1 | 0.0 | 0.0 | 0.00 | 0.00 | 0.00 | 96 | 1003.3 |
| 20260509082709 | 8 | 6 | 0.0 | 0.0 | 0.00 | 0.00 | 0.00 | 95 | 1003.6 |
| 20260509082206 | 8 | 348 | 0.0 | 0.0 | 0.00 | 0.00 | 0.00 | 95 | 1003.5 |
| 20260509081703 | 8 | 3 | 0.0 | 0.0 | 0.00 | 0.00 | 0.00 | 95 | 1003.4 |
| 20260509081200 | 8 | 325 | 0.0 | 0.0 | 0.00 | 0.00 | 0.00 | 95 | 1003.3 |
| 20260509080658 | 8 | 7 | 0.0 | 0.0 | 0.00 | 0.00 | 0.00 | 94 | 1003.3 |
| 20260509080156 | 8 | 44 | 0.0 | 0.0 | 0.00 | 0.00 | 0.00 | 95 | 1003.4 |
| 20260509075654 | 8 | 6 | 0.0 | 0.0 | 0.00 | 0.00 | 0.00 | 94 | 1003.3 |
| 20260509075151 | 8 | 12 | 0.0 | 0.0 | 0.00 | 0.00 | 0.00 | 94 | 1003.5 |
| 20260509074648 | 8 | 8 | 0.0 | 0.0 | 0.00 | 0.00 | 0.00 | 93 | 1003.5 |
| 20260509074144 | 8 | 1 | 0.0 | 0.0 | 0.00 | 0.00 | 0.00 | 93 | 1003.4 |
| 20260509073641 | 8 | 354 | 0.0 | 0.0 | 0.00 | 0.00 | 0.00 | 92 | 1003.6 |
| 20260509073137 | 8 | 302 | 0.0 | 1.6 | 0.00 | 0.00 | 0.00 | 90 | 1003.5 |
| 20260509072635 | 8 | 52 | 0.0 | 0.0 | 0.00 | 0.00 | 0.00 | 91 | 1003.6 |
| 20260509072131 | 7 | 4 | 0.0 | 0.0 | 0.00 | 0.00 | 0.00 | 90 | 1003.4 |
| 20260509071628 | 7 | 339 | 0.0 | 0.0 | 0.00 | 0.00 | 0.00 | 90 | 1003.3 |
| 20260509071125 | 7 | 21 | 0.0 | 0.0 | 0.00 | 0.00 | 0.00 | 86 | 1003.8 |
| 20260509070622 | 7 | 11 | 0.0 | 0.0 | 0.00 | 0.00 | 0.00 | 86 | 1003.7 |
| 20260509070119 | 7 | 17 | 0.0 | 0.0 | 0.00 | 0.00 | 0.00 | 86 | 1003.7 |
| 20260509065614 | 7 | 21 | 0.0 | 0.0 | 0.00 | 0.00 | 0.00 | 86 | 1003.7 |
| 20260509065110 | 7 | 27 | 0.0 | 0.0 | 0.00 | 0.00 | 0.00 | 83 | 1003.7 |
| 20260509064608 | 7 | 20 | 0.0 | 0.0 | 0.00 | 0.00 | 0.00 | 77 | 1003.9 |
| 20260509064106 | 7 | 13 | 0.0 | 0.0 | 0.00 | 0.00 | 0.00 | 75 | 1004.1 |
| 20260509063602 | 7 | 14 | 0.0 | 0.0 | 0.00 | 0.00 | 0.00 | 73 | 1004.2 |
| 20260509063059 | 7 | 356 | 0.0 | 0.0 | 0.00 | 0.00 | 0.00 | 73 | 1004.0 |
| 20260509062556 | 7 | 8 | 0.0 | 0.0 | 0.00 | 0.00 | 0.00 | 71 | 1004.1 |
| 20260509062053 | 7 | 54 | 0.0 | 0.0 | 0.00 | 0.00 | 0.00 | 68 | 1004.2 |
| 20260509061550 | 7 | 31 | 0.0 | 0.0 | 0.00 | 0.00 | 0.00 | 66 | 1004.5 |
| 20260509061047 | 7 | 12 | 0.0 | 0.0 | 0.00 | 0.00 | 0.00 | 63 | 1004.4 |
| 20260509060545 | 7 | 10 | 0.0 | 0.0 | 0.00 | 0.00 | 0.00 | 61 | 1004.2 |
| 20260509060040 | 6 | 3 | 0.0 | 0.0 | 0.00 | 0.00 | 0.00 | 61 | 1004.3 |
| 20260509055536 | 6 | 21 | 0.0 | 0.0 | 0.00 | 0.00 | 0.00 | 62 | 1004.4 |
| 20260509055032 | 6 | 9 | 0.0 | 0.0 | 0.00 | 0.00 | 0.00 | 58 | 1004.6 |
| 20260509054529 | 6 | 21 | 0.0 | 0.0 | 0.00 | 0.00 | 0.00 | 61 | 1004.5 |
| 20260509054027 | 6 | 24 | 0.0 | 0.0 | 0.00 | 0.00 | 0.00 | 62 | 1004.6 |
| 20260509053526 | 5 | 13 | 0.0 | 0.0 | 0.00 | 0.00 | 0.00 | 62 | 1004.6 |
| 20260509053022 | 6 | 26 | 0.0 | 0.0 | 0.00 | 0.00 | 0.00 | 62 | 1004.7 |
| 20260509052520 | 6 | 13 | 0.0 | 0.0 | 0.00 | 0.00 | 0.00 | 60 | 1004.8 |
| 20260509052018 | 6 | 35 | 0.0 | 0.0 | 0.00 | 0.00 | 0.00 | 61 | 1004.8 |
| 20260509051515 | 6 | 9 | 0.0 | 0.0 | 0.00 | 0.00 | 0.00 | 63 | 1004.7 |
| 20260509051012 | 6 | 4 | 0.0 | 0.0 | 0.00 | 0.00 | 0.00 | 62 | 1004.8 |
| 20260509050509 | 6 | 11 | 0.0 | 0.0 | 0.00 | 0.00 | 0.00 | 61 | 1004.9 |
| 20260509050005 | 6 | 26 | 0.0 | 0.0 | 0.00 | 0.00 | 0.00 | 64 | 1004.7 |
| 20260509045502 | 6 | 6 | 0.0 | 0.0 | 0.00 | 0.00 | 0.00 | 64 | 1004.8 |
| 20260509044959 | 6 | 6 | 0.0 | 0.0 | 0.00 | 0.00 | 0.00 | 62 | 1005.1 |
| 20260509044457 | 6 | 13 | 0.0 | 0.0 | 0.00 | 0.00 | 0.00 | 64 | 1005.0 |
| 20260509043954 | 6 | 16 | 0.0 | 0.0 | 0.00 | 0.00 | 0.00 | 65 | 1004.9 |
| 20260509043450 | 6 | 27 | 0.0 | 0.0 | 0.00 | 0.00 | 0.00 | 68 | 1004.9 |
| 20260509042945 | 6 | 29 | 0.0 | 0.0 | 0.00 | 0.00 | 0.00 | 68 | 1004.8 |
| 20260509042443 | 6 | 27 | 0.0 | 0.0 | 0.00 | 0.00 | 0.00 | 66 | 1004.9 |
| 20260509041939 | 6 | 27 | 0.0 | 0.0 | 0.00 | 0.00 | 0.00 | 65 | 1005.1 |
| 20260509041436 | 6 | 27 | 0.0 | 0.0 | 0.00 | 0.00 | 0.00 | 64 | 1005.1 |
| 20260509040934 | 6 | 27 | 0.0 | 0.0 | 0.00 | 0.00 | 0.00 | 65 | 1005.2 |
| 20260509040432 | 6 | 27 | 0.0 | 0.0 | 0.00 | 0.00 | 0.00 | 65 | 1004.9 |
| 20260509035928 | 6 | 27 | 0.0 | 0.0 | 0.00 | 0.00 | 0.00 | 65 | 1005.3 |
| 20260509035425 | 6 | 24 | 0.0 | 0.0 | 0.00 | 0.00 | 0.00 | 63 | 1005.1 |
| 20260509034921 | 6 | 8 | 0.0 | 0.0 | 0.00 | 0.00 | 0.00 | 62 | 1005.3 |
| 20260509034420 | 6 | 27 | 0.0 | 0.0 | 0.00 | 0.00 | 0.00 | 64 | 1005.4 |
| 20260509033916 | 6 | 28 | 0.0 | 0.0 | 0.00 | 0.00 | 0.00 | 63 | 1005.3 |
| 20260509033413 | 6 | 15 | 0.0 | 0.0 | 0.00 | 0.00 | 0.00 | 62 | 1005.3 |
| 20260509032910 | 6 | 28 | 0.0 | 0.0 | 0.00 | 0.00 | 0.00 | 62 | 1005.1 |
| 20260509032407 | 7 | 28 | 0.0 | 0.0 | 0.00 | 0.00 | 0.00 | 59 | 1005.2 |
| 20260509031905 | 7 | 28 | 0.0 | 0.0 | 0.00 | 0.00 | 0.00 | 58 | 1005.1 |
| 20260509031402 | 7 | 28 | 0.0 | 0.0 | 0.00 | 0.00 | 0.00 | 56 | 1005.2 |
| 20260509030859 | 7 | 19 | 0.0 | 0.0 | 0.00 | 0.00 | 0.00 | 55 | 1005.5 |
| 20260509030358 | 7 | 15 | 0.0 | 0.0 | 0.00 | 0.00 | 0.00 | 55 | 1005.5 |
| 20260509025854 | 7 | 16 | 0.0 | 0.0 | 0.00 | 0.00 | 0.00 | 52 | 1005.5 |
| 20260509025349 | 7 | 23 | 0.0 | 0.0 | 0.00 | 0.00 | 0.00 | 52 | 1005.4 |
| 20260509024845 | 8 | 17 | 0.0 | 0.0 | 0.00 | 0.00 | 0.00 | 50 | 1005.6 |
| 20260509024341 | 8 | 29 | 0.0 | 0.0 | 0.00 | 0.00 | 0.00 | 49 | 1005.7 |
| 20260509023839 | 8 | 29 | 0.0 | 0.0 | 0.00 | 0.00 | 0.00 | 48 | 1005.9 |
| 20260509023336 | 8 | 29 | 0.0 | 0.0 | 0.00 | 0.00 | 0.00 | 47 | 1006.0 |
| 20260509022832 | 8 | 29 | 0.0 | 0.0 | 0.00 | 0.00 | 0.00 | 48 | 1006.0 |
| 20260509022330 | 8 | 33 | 0.0 | 0.0 | 0.00 | 0.00 | 0.00 | 47 | 1005.9 |
| 20260509021826 | 8 | 29 | 0.0 | 0.0 | 0.00 | 0.00 | 0.00 | 46 | 1005.6 |
| 20260509021324 | 9 | 29 | 0.0 | 0.0 | 0.00 | 0.00 | 0.00 | 43 | 1005.9 |
| 20260509020821 | 9 | 29 | 0.0 | 0.0 | 0.00 | 0.00 | 0.00 | 42 | 1005.6 |
| 20260509020319 | 10 | 29 | 0.0 | 0.0 | 0.00 | 0.00 | 0.00 | 43 | 1006.0 |
| 20260509015817 | 10 | 29 | 0.0 | 0.0 | 0.00 | 0.00 | 0.00 | 44 | 1005.7 |
| 20260509015315 | 10 | 30 | 0.0 | 0.0 | 0.00 | 0.00 | 0.00 | 44 | 1005.5 |
| 20260509014811 | 10 | 20 | 0.0 | 0.0 | 0.00 | 0.00 | 0.00 | 42 | 1005.7 |
| 20260509014308 | 10 | 30 | 0.0 | 0.0 | 0.00 | 0.00 | 0.00 | 38 | 1005.3 |
| 20260509013805 | 11 | 30 | 0.0 | 0.0 | 0.00 | 0.00 | 0.00 | 37 | 1005.4 |
| 20260509013301 | 11 | 29 | 0.0 | 0.0 | 0.00 | 0.00 | 0.00 | 35 | 1005.7 |
| 20260509012757 | 11 | 29 | 0.0 | 0.0 | 0.00 | 0.00 | 0.00 | 35 | 1005.5 |
| 20260509012254 | 12 | 22 | 0.0 | 0.0 | 0.00 | 0.00 | 0.00 | 33 | 1005.3 |
| 20260509011751 | 13 | 17 | 0.0 | 0.0 | 0.00 | 0.00 | 0.00 | 31 | 1005.6 |
| 20260509011248 | 13 | 16 | 0.0 | 0.0 | 0.00 | 0.00 | 0.00 | 30 | 1005.5 |
| 20260509010746 | 13 | 12 | 0.0 | 0.0 | 0.00 | 0.00 | 0.00 | 29 | 1005.5 |
| 20260509010243 | 13 | 10 | 0.0 | 0.0 | 0.00 | 0.00 | 0.00 | 28 | 1005.5 |
| 20260509005741 | 13 | 41 | 0.0 | 0.0 | 0.00 | 0.00 | 0.00 | 27 | 1005.4 |
| 20260509005238 | 14 | 11 | 0.0 | 0.0 | 0.00 | 0.00 | 0.00 | 27 | 1005.4 |
| 20260509004737 | 14 | 12 | 0.0 | 0.0 | 0.00 | 0.00 | 0.00 | 26 | 1005.4 |
| 20260509004235 | 14 | 13 | 3.2 | 3.2 | 0.00 | 0.00 | 0.00 | 26 | 1005.2 |
| 20260509003733 | 15 | 58 | 1.6 | 1.6 | 0.00 | 0.00 | 0.00 | 26 | 1005.3 |
| 20260509003230 | 15 | 34 | 0.0 | 1.6 | 0.00 | 0.00 | 0.00 | 26 | 1005.3 |
| 20260509002727 | 15 | 3 | 1.6 | 3.2 | 0.00 | 0.00 | 0.00 | 25 | 1005.3 |
| 20260509002225 | 15 | 20 | 1.6 | 3.2 | 0.00 | 0.00 | 0.00 | 26 | 1005.2 |
| 20260509001723 | 15 | 5 | 1.6 | 3.2 | 0.00 | 0.00 | 0.00 | 25 | 1005.1 |
| 20260509001218 | 16 | 18 | 1.6 | 3.2 | 0.00 | 0.00 | 0.00 | 25 | 1005.2 |
| 20260509000717 | 16 | 38 | 3.2 | 3.2 | 0.00 | 0.00 | 0.00 | 24 | 1005.2 |
| 20260509000213 | 16 | 108 | 1.6 | 3.2 | 0.00 | 0.00 | 0.00 | 24 | 1005.1 |
| 20260508235710 | 16 | 338 | 1.6 | 3.2 | 0.00 | 0.00 | 0.00 | 25 | 1005.2 |
| 20260508235207 | 16 | 331 | 3.2 | 4.8 | 0.00 | 0.00 | 0.00 | 23 | 1005.2 |
| 20260508234704 | 16 | 359 | 3.2 | 3.2 | 0.00 | 0.00 | 0.00 | 24 | 1005.2 |
| 20260508234200 | 16 | 275 | 4.8 | 4.8 | 0.00 | 0.00 | 0.00 | 24 | 1005.1 |
| 20260508233700 | 16 | 6 | 3.2 | 4.8 | 0.00 | 0.00 | 0.00 | 24 | 1005.3 |
| 20260508233157 | 17 | 25 | 3.2 | 4.8 | 0.00 | 0.00 | 0.00 | 23 | 1005.1 |
| 20260508232655 | 17 | 11 | 4.8 | 4.8 | 0.00 | 0.00 | 0.00 | 23 | 1005.0 |